This is the latest recevied weather packets stored in our database for station/object KN6WGU. If no packets are shown the sender has not sent any weather packets the latest 10 day(s).
| Time | Temp. | Humidity | Pressure | Rain* | Wind** | Luminosity | Snow |
|---|---|---|---|---|---|---|---|
| 1777995479 | 18.89° C | 65% | 1000.1 hPa | 0 mm | - | 82 W/m² | - |
| 1777995176 | 19.44° C | 64% | 1000.1 hPa | 0 mm | - | 71 W/m² | - |
| 1777994873 | 20° C | 64% | 999.8 hPa | 0 mm | - | 167 W/m² | - |
| 1777994569 | 19.44° C | 64% | 999.6 hPa | 0 mm | - | 223 W/m² | - |
| 1777994263 | 19.44° C | 64% | 999.6 hPa | 0 mm | - | 215 W/m² | - |
| 1777993961 | 20° C | 63% | 999.5 hPa | 0 mm | - | 200 W/m² | - |
| 1777993659 | 19.44° C | 63% | 999.2 hPa | 0 mm | - | 203 W/m² | - |
| 1777993357 | 19.44° C | 63% | 998.9 hPa | 0 mm | - | 200 W/m² | - |
| 1777993055 | 19.44° C | 65% | 998.9 hPa | 0 mm | - | 197 W/m² | - |
| 1777992754 | 19.44° C | 63% | 999 hPa | 0 mm | - | 176 W/m² | - |
| 1777992451 | 19.44° C | 64% | 998.9 hPa | 0 mm | - | 178 W/m² | - |
| 1777992150 | 18.89° C | 63% | 998.9 hPa | 0 mm | - | 150 W/m² | - |
| 1777991846 | 18.89° C | 63% | 998.9 hPa | 0 mm | - | 151 W/m² | - |
| 1777991544 | 18.89° C | 64% | 999 hPa | 0 mm | - | 145 W/m² | - |
| 1777991240 | 18.89° C | 65% | 999.1 hPa | 0 mm | - | 131 W/m² | - |
| 1777990938 | 18.33° C | 65% | 999.1 hPa | 0 mm | - | 134 W/m² | - |
| 1777990635 | 18.33° C | 65% | 998.9 hPa | 0 mm | - | 145 W/m² | - |
| 1777990332 | 18.33° C | 65% | 999.1 hPa | 0 mm | - | 174 W/m² | - |
| 1777990028 | 18.33° C | 67% | 999.5 hPa | 0 mm | - | 138 W/m² | - |
| 1777989726 | 18.33° C | 66% | 999.1 hPa | 0 mm | - | 153 W/m² | - |
| 1777989422 | 18.33° C | 65% | 999.1 hPa | 0 mm | - | 150 W/m² | - |
| 1777989118 | 18.33° C | 65% | 999 hPa | 0 mm | - | 130 W/m² | - |
| 1777988814 | 18.33° C | 66% | 998.8 hPa | 0 mm | - | 133 W/m² | - |
| 1777988512 | 18.33° C | 66% | 998.9 hPa | 0 mm | - | 278 W/m² | - |
| 1777988208 | 18.33° C | 68% | 998.8 hPa | 0 mm | - | 262 W/m² | - |
* Rain latest hour (hover to see other rain measurements)
** Current wind speed in m/s (hover to see current wind gust speed)